EZY25TF EGAC-EGPF

Flight info

Callsign EZY25TF
Flight time 0h 24m
Altitude 15000
Route MAGEE DCT BLACA
Aircraft A320/M-SDE3FGHIRWY/LB1

Departure

Time 2026-05-07 11:46
Airport George Best Belfast City Airport (EGAC)

Arrival

Time 2026-05-07 12:11
Airport Glasgow Airport (EGPF)
Time Latitude Longitude Altitude Speed Heading
2026-05-07 11:26 54.61471 -5.87195 24 ft 0 kts 157°
2026-05-07 11:36 54.61481 -5.87203 22 ft 2 kts 150°
2026-05-07 11:36 54.61495 -5.87217 22 ft 2 kts 146°
2026-05-07 11:36 54.61508 -5.87236 23 ft 2 kts 91°
2026-05-07 11:37 54.61503 -5.87258 21 ft 1 kts 38°
2026-05-07 11:37 54.61502 -5.87261 22 ft 0 kts 34°
2026-05-07 11:37 54.61503 -5.87260 22 ft 0 kts 34°
2026-05-07 11:42 54.61510 -5.87251 23 ft 6 kts 35°
2026-05-07 11:43 54.61547 -5.87204 21 ft 7 kts 36°
2026-05-07 11:43 54.61602 -5.87138 21 ft 10 kts 35°
2026-05-07 11:43 54.61654 -5.87075 21 ft 9 kts 35°
2026-05-07 11:43 54.61729 -5.86998 22 ft 18 kts 13°
2026-05-07 11:44 54.61793 -5.87081 20 ft 10 kts 304°
2026-05-07 11:44 54.61874 -5.87181 21 ft 16 kts
2026-05-07 11:44 54.61992 -5.87037 20 ft 33 kts 34°
2026-05-07 11:44 54.62224 -5.86756 22 ft 42 kts 34°
2026-05-07 11:45 54.62417 -5.86545 22 ft 18 kts
2026-05-07 11:45 54.62486 -5.86476 21 ft 4 kts 99°
2026-05-07 11:45 54.62459 -5.86478 21 ft 10 kts 211°
2026-05-07 11:45 54.62305 -5.86665 22 ft 59 kts 214°
2026-05-07 11:46 54.61778 -5.87289 21 ft 122 kts 215°
2026-05-07 11:46 54.61004 -5.88223 407 ft 136 kts 213°
2026-05-07 11:46 54.60196 -5.89109 1025 ft 141 kts 205°
2026-05-07 11:46 54.59207 -5.89291 1499 ft 157 kts 166°
2026-05-07 11:47 54.58304 -5.88065 1850 ft 184 kts 124°
2026-05-07 11:47 54.58051 -5.85772 2231 ft 210 kts 84°
2026-05-07 11:47 54.58672 -5.83381 2630 ft 232 kts 57°
2026-05-07 11:47 54.59660 -5.81064 3093 ft 244 kts 52°
2026-05-07 11:48 54.60800 -5.78792 3580 ft 261 kts 49°
2026-05-07 11:48 54.62073 -5.76374 4069 ft 283 kts 49°
2026-05-07 11:48 54.63455 -5.73814 4644 ft 299 kts 48°
2026-05-07 11:48 54.64860 -5.71117 5556 ft 297 kts 52°
2026-05-07 11:49 54.66130 -5.68339 6616 ft 295 kts 55°
2026-05-07 11:49 54.67348 -5.65478 7460 ft 297 kts 56°
2026-05-07 11:49 54.68558 -5.62568 8283 ft 300 kts 56°
2026-05-07 11:49 54.69785 -5.59617 9092 ft 304 kts 55°
2026-05-07 11:50 54.71034 -5.56640 9894 ft 308 kts 54°
2026-05-07 11:50 54.72319 -5.53603 10407 ft 322 kts 54°
2026-05-07 11:50 54.73694 -5.50382 10594 ft 345 kts 54°
2026-05-07 11:50 54.75175 -5.46919 10773 ft 368 kts 54°
2026-05-07 11:51 54.76720 -5.43301 11249 ft 378 kts 54°
2026-05-07 11:51 54.78278 -5.39648 11918 ft 382 kts 54°
2026-05-07 11:51 54.79876 -5.35898 12604 ft 386 kts 54°
2026-05-07 11:51 54.81473 -5.32137 13276 ft 389 kts 54°
2026-05-07 11:52 54.83084 -5.28330 13924 ft 393 kts 54°
2026-05-07 11:52 54.84708 -5.24482 14508 ft 397 kts 54°
2026-05-07 11:52 54.86375 -5.20637 14876 ft 399 kts 51°
2026-05-07 11:52 54.88314 -5.17168 14972 ft 407 kts 41°
2026-05-07 11:53 54.90626 -5.14136 14993 ft 426 kts 32°
2026-05-07 11:53 54.93254 -5.11652 14981 ft 434 kts 25°
2026-05-07 11:53 54.95972 -5.09321 14981 ft 436 kts 25°
2026-05-07 11:53 54.98688 -5.06971 14979 ft 436 kts 26°
2026-05-07 11:54 55.01404 -5.04606 14978 ft 436 kts 26°
2026-05-07 11:54 55.04118 -5.02235 14982 ft 437 kts 26°
2026-05-07 11:54 55.06831 -4.99864 14978 ft 436 kts 26°
2026-05-07 11:54 55.09552 -4.97495 14977 ft 436 kts 26°
2026-05-07 11:55 55.12269 -4.95131 14978 ft 436 kts 26°
2026-05-07 11:55 55.14985 -4.92763 14965 ft 436 kts 26°
2026-05-07 11:55 55.17697 -4.90392 14980 ft 436 kts 26°
2026-05-07 11:55 55.20398 -4.88029 14968 ft 426 kts 26°
2026-05-07 11:56 55.22989 -4.85751 14919 ft 409 kts 26°
2026-05-07 11:56 55.25462 -4.83571 14795 ft 384 kts 26°
2026-05-07 11:56 55.27768 -4.81535 14668 ft 359 kts 26°
2026-05-07 11:56 55.29972 -4.79538 14260 ft 357 kts 30°
2026-05-07 11:57 55.31943 -4.76898 13842 ft 357 kts 45°
2026-05-07 11:57 55.33563 -4.73612 13390 ft 355 kts 52°
2026-05-07 11:57 55.35120 -4.70252 12953 ft 353 kts 52°
2026-05-07 11:57 55.36670 -4.66914 12553 ft 351 kts 52°
2026-05-07 11:58 55.38188 -4.63648 12126 ft 349 kts 52°
2026-05-07 11:58 55.39737 -4.60311 11724 ft 346 kts 52°
2026-05-07 11:58 55.41229 -4.57087 11331 ft 343 kts 52°
2026-05-07 11:58 55.42748 -4.53797 10929 ft 341 kts 52°
2026-05-07 11:59 55.44221 -4.50603 10535 ft 339 kts 52°
2026-05-07 11:59 55.45709 -4.47393 10110 ft 338 kts 50°
2026-05-07 11:59 55.47425 -4.44582 9696 ft 336 kts 40°
2026-05-07 11:59 55.49237 -4.41986 9262 ft 334 kts 39°
2026-05-07 12:00 55.51041 -4.39426 8816 ft 332 kts 39°
2026-05-07 12:00 55.52840 -4.36874 8376 ft 330 kts 39°
2026-05-07 12:00 55.54625 -4.34336 7925 ft 329 kts 39°
2026-05-07 12:00 55.56402 -4.31811 7516 ft 327 kts 39°
2026-05-07 12:01 55.58168 -4.29300 7165 ft 325 kts 39°
2026-05-07 12:01 55.59920 -4.26793 6773 ft 323 kts 39°
2026-05-07 12:01 55.61664 -4.24300 6305 ft 322 kts 39°
2026-05-07 12:01 55.63399 -4.21813 5857 ft 320 kts 39°
2026-05-07 12:02 55.65151 -4.19395 5391 ft 318 kts 31°
2026-05-07 12:02 55.67142 -4.17748 4939 ft 315 kts 20°
2026-05-07 12:02 55.69175 -4.16358 4484 ft 313 kts 19°
2026-05-07 12:02 55.71211 -4.15002 4070 ft 311 kts 19°
2026-05-07 12:03 55.75262 -4.12290 3885 ft 309 kts 19°
2026-05-07 12:03 55.79145 -4.10136 2930 ft 307 kts
2026-05-07 12:04 55.81251 -4.09777 2477 ft 303 kts
2026-05-07 12:04 55.83350 -4.09585 2061 ft 300 kts
2026-05-07 12:04 55.85390 -4.09424 1990 ft 284 kts
2026-05-07 12:04 55.87296 -4.09273 2000 ft 265 kts
2026-05-07 12:05 55.89103 -4.09138 2003 ft 257 kts 358°
2026-05-07 12:05 55.90784 -4.09769 2006 ft 238 kts 328°
2026-05-07 12:05 55.92157 -4.11194 1999 ft 220 kts 321°
2026-05-07 12:05 55.93404 -4.12684 1997 ft 211 kts 311°
2026-05-07 12:06 55.94356 -4.14525 2033 ft 192 kts 301°
2026-05-07 12:06 55.95140 -4.16308 2002 ft 175 kts 300°
2026-05-07 12:06 55.95766 -4.18128 2002 ft 168 kts 280°
2026-05-07 12:06 55.96106 -4.20124 2001 ft 168 kts 279°
2026-05-07 12:07 55.96400 -4.22131 2002 ft 165 kts 268°
2026-05-07 12:07 55.96468 -4.24164 2004 ft 162 kts 261°
2026-05-07 12:07 55.96225 -4.26061 2004 ft 155 kts 239°
2026-05-07 12:07 55.95587 -4.27576 2013 ft 154 kts 224°
2026-05-07 12:08 55.94852 -4.28956 1974 ft 153 kts 224°
2026-05-07 12:08 55.94124 -4.30325 1858 ft 151 kts 223°
2026-05-07 12:08 55.93402 -4.31683 1687 ft 151 kts 223°
2026-05-07 12:08 55.92685 -4.33026 1464 ft 145 kts 222°
2026-05-07 12:09 55.92019 -4.34292 1230 ft 139 kts 224°
2026-05-07 12:09 55.91355 -4.35546 1124 ft 137 kts 223°
2026-05-07 12:09 55.90699 -4.36768 933 ft 131 kts 221°
2026-05-07 12:09 55.90058 -4.37971 753 ft 133 kts 221°
2026-05-07 12:10 55.89394 -4.39204 521 ft 137 kts 223°
2026-05-07 12:10 55.88763 -4.40374 312 ft 126 kts 225°
2026-05-07 12:10 55.88164 -4.41516 155 ft 134 kts 224°
2026-05-07 12:10 55.87536 -4.42673 34 ft 120 kts 227°
2026-05-07 12:11 55.87067 -4.43560 34 ft 76 kts 225°
2026-05-07 12:11 55.86786 -4.44086 31 ft 38 kts 226°
2026-05-07 12:11 55.86655 -4.44285 34 ft 10 kts 167°
2026-05-07 12:11 55.86617 -4.44172 31 ft 12 kts 94°
2026-05-07 12:12 55.86618 -4.44003 29 ft 13 kts 87°
2026-05-07 12:12 55.86663 -4.43877 28 ft 12 kts 46°
2026-05-07 12:12 55.86721 -4.43767 27 ft 12 kts 58°
2026-05-07 12:12 55.86745 -4.43651 29 ft 9 kts 73°
2026-05-07 12:13 55.86748 -4.43632 29 ft 9 kts 73°